Time,TemperatureF,DewpointF,PressureIn,WindDirection,WindDirectionDegrees,WindSpeedMPH,WindSpeedGustMPH,Humidity,HourlyPrecipIn,Conditions,Clouds,dailyrainin,SoftwareType,DateUTC
2013-12-04 00:00:00,41.8,36.1,29.88,North,6,6.0,7.0,80,0.00,,,0.00,Wunderground v.1.15,2013-12-04 05:00:00,
2013-12-04 00:05:00,42.0,36.3,29.88,North,353,7.0,7.0,80,0.00,,,0.00,Wunderground v.1.15,2013-12-04 05:05:00,
2013-12-04 00:10:00,42.0,36.3,29.88,North,2,6.0,6.0,80,0.00,,,0.00,Wunderground v.1.15,2013-12-04 05:10:00,
2013-12-04 00:20:00,41.9,36.2,29.88,NNE,25,6.0,6.0,80,0.00,,,0.00,Wunderground v.1.15,2013-12-04 05:20:00,
2013-12-04 00:25:00,41.8,36.1,29.88,North,354,6.0,6.0,80,0.00,,,0.00,Wunderground v.1.15,2013-12-04 05:25:00,
2013-12-04 00:30:00,41.7,36.0,29.89,NNE,33,6.0,7.0,80,0.00,,,0.00,Wunderground v.1.15,2013-12-04 05:30:00,
2013-12-04 00:40:00,41.5,35.5,29.89,NNE,25,6.0,6.0,79,0.00,,,0.00,Wunderground v.1.15,2013-12-04 05:40:00,
2013-12-04 00:50:00,41.4,35.4,29.89,NNW,331,5.0,5.0,79,0.00,,,0.00,Wunderground v.1.15,2013-12-04 05:50:00,
2013-12-04 00:55:00,41.4,35.4,29.89,North,2,6.0,6.0,79,0.00,,,0.00,Wunderground v.1.15,2013-12-04 05:55:00,
2013-12-04 01:00:00,41.4,35.7,29.90,North,356,5.0,5.0,80,0.00,,,0.00,Wunderground v.1.15,2013-12-04 06:00:00,
2013-12-04 01:10:00,41.4,35.7,29.90,North,4,6.0,6.0,80,0.00,,,0.00,Wunderground v.1.15,2013-12-04 06:10:00,
2013-12-04 01:20:00,41.4,35.4,29.90,North,1,7.0,7.0,79,0.00,,,0.00,Wunderground v.1.15,2013-12-04 06:20:00,
2013-12-04 01:30:00,41.4,35.1,29.90,North,7,7.0,7.0,78,0.00,,,0.00,Wunderground v.1.15,2013-12-04 06:30:00,
2013-12-04 01:35:00,41.3,35.3,29.90,NNW,338,6.0,7.0,79,0.00,,,0.00,Wunderground v.1.15,2013-12-04 06:35:00,
2013-12-04 01:40:00,41.3,35.3,29.90,NNW,339,6.0,6.0,79,0.00,,,0.00,Wunderground v.1.15,2013-12-04 06:40:00,
2013-12-04 01:50:00,41.2,34.9,29.91,NNW,347,6.0,7.0,78,0.00,,,0.00,Wunderground v.1.15,2013-12-04 06:50:00,
2013-12-04 02:00:00,41.0,34.3,29.92,North,351,7.0,7.0,77,0.00,,,0.00,Wunderground v.1.15,2013-12-04 07:00:00,
2013-12-04 02:10:00,41.0,34.3,29.92,North,6,6.0,6.0,77,0.00,,,0.00,Wunderground v.1.15,2013-12-04 07:10:00,
2013-12-04 02:20:00,40.9,34.6,29.92,NNW,343,5.0,5.0,78,0.00,,,0.00,Wunderground v.1.15,2013-12-04 07:20:00,
2013-12-04 02:30:00,40.9,34.6,29.92,NNW,346,5.0,9.0,78,0.00,,,0.00,Wunderground v.1.15,2013-12-04 07:30:00,
2013-12-04 02:40:00,40.7,34.4,29.92,NNW,344,5.0,6.0,78,0.00,,,0.00,Wunderground v.1.15,2013-12-04 07:40:00,
2013-12-04 02:50:00,40.6,34.3,29.92,North,4,5.0,5.0,78,0.00,,,0.00,Wunderground v.1.15,2013-12-04 07:50:00,
2013-12-04 03:00:00,40.5,34.2,29.92,North,2,4.0,5.0,78,0.00,,,0.00,Wunderground v.1.15,2013-12-04 08:00:00,
2013-12-04 03:10:00,40.2,33.9,29.92,North,2,4.0,4.0,78,0.00,,,0.00,Wunderground v.1.15,2013-12-04 08:10:00,
2013-12-04 03:20:00,40.0,33.7,29.92,North,360,3.0,3.0,78,0.00,,,0.00,Wunderground v.1.15,2013-12-04 08:20:00,
2013-12-04 03:30:00,39.9,33.3,29.92,NNE,20,4.0,4.0,77,0.00,,,0.00,Wunderground v.1.15,2013-12-04 08:30:00,
2013-12-04 03:40:00,39.8,33.2,29.92,North,357,4.0,4.0,77,0.00,,,0.00,Wunderground v.1.15,2013-12-04 08:40:00,
2013-12-04 03:50:00,39.8,33.5,29.92,North,3,4.0,4.0,78,0.00,,,0.00,Wunderground v.1.15,2013-12-04 08:50:00,
2013-12-04 04:00:00,39.7,33.7,29.92,WNW,290,4.0,4.0,79,0.00,,,0.00,Wunderground v.1.15,2013-12-04 09:00:00,
2013-12-04 04:10:00,39.6,33.6,29.92,NNW,343,3.0,3.0,79,0.00,,,0.00,Wunderground v.1.15,2013-12-04 09:10:00,
2013-12-04 04:20:00,39.6,33.9,29.92,NNW,347,4.0,4.0,80,0.00,,,0.00,Wunderground v.1.15,2013-12-04 09:20:00,
2013-12-04 04:30:00,39.6,33.9,29.93,NNW,327,3.0,3.0,80,0.00,,,0.00,Wunderground v.1.15,2013-12-04 09:30:00,
2013-12-04 04:40:00,39.6,33.9,29.93,NNE,31,2.0,2.0,80,0.00,,,0.00,Wunderground v.1.15,2013-12-04 09:40:00,
2013-12-04 04:50:00,39.3,33.6,29.93,NNE,21,1.0,1.0,80,0.00,,,0.00,Wunderground v.1.15,2013-12-04 09:50:00,
2013-12-04 05:00:00,39.0,34.0,29.93,WNW,296,1.0,2.0,82,0.00,,,0.00,Wunderground v.1.15,2013-12-04 10:00:00,
2013-12-04 05:10:00,39.0,34.0,29.93,West,272,1.0,1.0,82,0.00,,,0.00,Wunderground v.1.15,2013-12-04 10:10:00,
2013-12-04 05:20:00,38.9,34.2,29.93,NNW,339,2.0,4.0,83,0.00,,,0.00,Wunderground v.1.15,2013-12-04 10:20:00,
2013-12-04 05:30:00,39.3,34.6,29.94,NNE,29,4.0,4.0,83,0.00,,,0.00,Wunderground v.1.15,2013-12-04 10:30:00,
2013-12-04 05:40:00,39.7,34.3,29.94,NW,317,4.0,4.0,81,0.00,,,0.00,Wunderground v.1.15,2013-12-04 10:40:00,
2013-12-04 05:50:00,39.8,34.1,29.95,NNE,32,4.0,5.0,80,0.00,,,0.00,Wunderground v.1.15,2013-12-04 10:50:00,
2013-12-04 06:00:00,40.2,34.5,29.96,NNW,335,6.0,6.0,80,0.00,,,0.00,Wunderground v.1.15,2013-12-04 11:00:00,
2013-12-04 06:10:00,40.5,34.5,29.96,NE,41,7.0,8.0,79,0.00,,,0.00,Wunderground v.1.15,2013-12-04 11:10:00,
2013-12-04 06:20:00,40.8,35.1,29.96,NNE,20,7.0,7.0,80,0.00,,,0.00,Wunderground v.1.15,2013-12-04 11:20:00,
2013-12-04 06:30:00,41.0,35.6,29.97,NE,41,5.0,5.0,81,0.00,,,0.00,Wunderground v.1.15,2013-12-04 11:30:00,
2013-12-04 06:40:00,41.1,35.4,29.97,North,350,5.0,8.0,80,0.00,,,0.00,Wunderground v.1.15,2013-12-04 11:40:00,
2013-12-04 06:50:00,41.2,35.8,29.98,North,2,6.0,9.0,81,0.00,,,0.00,Wunderground v.1.15,2013-12-04 11:50:00,
2013-12-04 07:00:00,41.3,36.2,29.98,North,349,6.0,6.0,82,0.00,,,0.00,Wunderground v.1.15,2013-12-04 12:00:00,
2013-12-04 07:10:00,41.3,35.9,29.98,North,357,7.0,7.0,81,0.00,,,0.00,Wunderground v.1.15,2013-12-04 12:10:00,
2013-12-04 07:20:00,41.1,36.0,29.98,NE,37,6.0,9.0,82,0.00,,,0.00,Wunderground v.1.15,2013-12-04 12:20:00,
2013-12-04 07:30:00,41.0,36.2,29.98,NW,318,7.0,7.0,83,0.00,,,0.00,Wunderground v.1.15,2013-12-04 12:30:00,
2013-12-04 07:40:00,40.9,35.2,29.98,North,8,7.0,7.0,80,0.00,,,0.00,Wunderground v.1.15,2013-12-04 12:40:00,
2013-12-04 07:50:00,41.2,34.9,29.99,North,352,7.0,7.0,78,0.00,,,0.00,Wunderground v.1.15,2013-12-04 12:50:00,
2013-12-04 08:00:00,41.2,35.2,29.99,North,360,6.0,6.0,79,0.00,,,0.00,Wunderground v.1.15,2013-12-04 13:00:00,
2013-12-04 08:15:00,41.1,34.4,30.00,North,9,6.0,6.0,77,0.00,,,0.00,Wunderground v.1.15,2013-12-04 13:15:00,
2013-12-04 08:20:00,41.1,34.8,30.00,North,355,6.0,6.0,78,0.00,,,0.00,Wunderground v.1.15,2013-12-04 13:20:00,
2013-12-04 08:30:00,41.1,34.8,30.00,North,358,5.0,6.0,78,0.00,,,0.00,Wunderground v.1.15,2013-12-04 13:30:00,
2013-12-04 08:40:00,41.1,34.8,30.00,NNW,347,4.0,4.0,78,0.00,,,0.00,Wunderground v.1.15,2013-12-04 13:40:00,
2013-12-04 08:50:00,41.1,34.8,30.00,North,2,4.0,4.0,78,0.00,,,0.00,Wunderground v.1.15,2013-12-04 13:50:00,
2013-12-04 09:00:00,41.1,34.8,30.00,NNE,18,3.0,3.0,78,0.00,,,0.00,Wunderground v.1.15,2013-12-04 14:00:00,
2013-12-04 09:10:00,41.2,34.5,30.00,North,351,3.0,3.0,77,0.00,,,0.00,Wunderground v.1.15,2013-12-04 14:10:00,
2013-12-04 09:20:00,41.3,34.6,30.00,NNW,339,3.0,3.0,77,0.00,,,0.00,Wunderground v.1.15,2013-12-04 14:20:00,
2013-12-04 09:30:00,41.4,34.7,30.00,North,360,2.0,2.0,77,0.00,,,0.00,Wunderground v.1.15,2013-12-04 14:30:00,
2013-12-04 09:40:00,41.6,34.9,30.00,North,358,1.0,2.0,77,0.00,,,0.00,Wunderground v.1.15,2013-12-04 14:40:00,
2013-12-04 09:50:00,41.8,34.5,30.00,North,349,2.0,2.0,75,0.00,,,0.00,Wunderground v.1.15,2013-12-04 14:50:00,
2013-12-04 10:00:00,42.0,35.0,30.00,North,359,2.0,2.0,76,0.00,,,0.00,Wunderground v.1.15,2013-12-04 15:00:00,
2013-12-04 10:10:00,42.1,34.7,30.00,NW,313,3.0,3.0,75,0.00,,,0.00,Wunderground v.1.15,2013-12-04 15:10:00,
2013-12-04 10:20:00,42.3,35.3,30.00,NNE,31,2.0,2.0,76,0.00,,,0.00,Wunderground v.1.15,2013-12-04 15:20:00,
2013-12-04 10:30:00,42.4,35.4,30.00,NNE,18,1.0,1.0,76,0.00,,,0.00,Wunderground v.1.15,2013-12-04 15:30:00,
2013-12-04 10:40:00,42.6,35.6,30.00,ENE,62,2.0,3.0,76,0.00,,,0.00,Wunderground v.1.15,2013-12-04 15:40:00,
2013-12-04 10:50:00,42.8,35.8,29.99,ESE,120,2.0,2.0,76,0.00,,,0.00,Wunderground v.1.15,2013-12-04 15:50:00,
2013-12-04 11:00:00,43.0,36.0,30.00,NNE,33,1.0,2.0,76,0.00,,,0.00,Wunderground v.1.15,2013-12-04 16:00:00,
2013-12-04 11:10:00,43.1,35.7,30.00,NNE,25,1.0,1.0,75,0.00,,,0.00,Wunderground v.1.15,2013-12-04 16:10:00,
2013-12-04 11:20:00,43.0,35.3,30.01,North,353,2.0,2.0,74,0.00,,,0.00,Wunderground v.1.15,2013-12-04 16:20:00,
2013-12-04 11:30:00,43.0,35.6,30.01,NNE,16,2.0,2.0,75,0.00,,,0.00,Wunderground v.1.15,2013-12-04 16:30:00,
2013-12-04 11:40:00,42.9,35.2,30.01,North,358,3.0,4.0,74,0.00,,,0.00,Wunderground v.1.15,2013-12-04 16:40:00,
2013-12-04 11:50:00,43.0,36.0,30.00,North,6,3.0,3.0,76,0.00,,,0.00,Wunderground v.1.15,2013-12-04 16:50:00,
2013-12-04 12:00:00,43.0,36.0,30.00,NW,323,3.0,4.0,76,0.00,,,0.00,Wunderground v.1.15,2013-12-04 17:00:00,
2013-12-04 12:10:00,43.2,35.8,30.00,North,4,3.0,3.0,75,0.00,,,0.00,Wunderground v.1.15,2013-12-04 17:10:00,
2013-12-04 12:20:00,43.3,35.9,30.01,NW,324,3.0,4.0,75,0.00,,,0.00,Wunderground v.1.15,2013-12-04 17:20:00,
2013-12-04 12:30:00,43.2,35.8,30.00,North,355,4.0,4.0,75,0.00,,,0.00,Wunderground v.1.15,2013-12-04 17:30:00,
2013-12-04 12:40:00,43.1,36.0,30.00,North,8,4.0,4.0,76,0.00,,,0.00,Wunderground v.1.15,2013-12-04 17:40:00,
2013-12-04 12:50:00,43.1,35.7,30.00,North,360,3.0,3.0,75,0.00,,,0.00,Wunderground v.1.15,2013-12-04 17:50:00,
2013-12-04 13:00:00,43.0,36.0,30.00,NNE,19,4.0,4.0,76,0.00,,,0.00,Wunderground v.1.15,2013-12-04 18:00:00,
2013-12-04 13:10:00,42.9,35.9,30.00,North,10,3.0,3.0,76,0.00,,,0.00,Wunderground v.1.15,2013-12-04 18:10:00,
2013-12-04 13:20:00,42.9,35.9,29.99,North,358,3.0,3.0,76,0.00,,,0.00,Wunderground v.1.15,2013-12-04 18:20:00,
2013-12-04 13:30:00,43.1,36.4,29.99,North,6,2.0,2.0,77,0.00,,,0.00,Wunderground v.1.15,2013-12-04 18:30:00,
2013-12-04 13:40:00,43.2,36.5,29.99,North,355,2.0,2.0,77,0.00,,,0.00,Wunderground v.1.15,2013-12-04 18:40:00,
2013-12-04 13:50:00,43.1,36.4,29.99,North,353,2.0,2.0,77,0.00,,,0.00,Wunderground v.1.15,2013-12-04 18:50:00,
2013-12-04 14:00:00,43.0,36.0,29.98,NNE,14,2.0,2.0,76,0.00,,,0.00,Wunderground v.1.15,2013-12-04 19:00:00,
2013-12-04 14:10:00,43.2,36.1,29.98,NNE,31,2.0,2.0,76,0.00,,,0.00,Wunderground v.1.15,2013-12-04 19:10:00,
2013-12-04 14:20:00,43.2,35.8,29.98,NNE,12,1.0,1.0,75,0.00,,,0.00,Wunderground v.1.15,2013-12-04 19:20:00,
2013-12-04 14:30:00,43.3,35.9,29.98,North,8,2.0,2.0,75,0.00,,,0.00,Wunderground v.1.15,2013-12-04 19:30:00,
2013-12-04 14:40:00,43.4,35.7,29.98,NNE,19,1.0,1.0,74,0.00,,,0.00,Wunderground v.1.15,2013-12-04 19:40:00,
2013-12-04 14:50:00,43.4,35.7,29.98,NNE,17,2.0,2.0,74,0.00,,,0.00,Wunderground v.1.15,2013-12-04 19:50:00,
2013-12-04 15:00:00,43.4,35.7,29.99,NNE,27,1.0,1.0,74,0.00,,,0.00,Wunderground v.1.15,2013-12-04 20:00:00,
2013-12-04 15:10:00,43.4,36.0,29.99,NNE,31,1.0,2.0,75,0.00,,,0.00,Wunderground v.1.15,2013-12-04 20:10:00,
2013-12-04 15:20:00,43.3,35.9,30.00,NE,49,1.0,2.0,75,0.00,,,0.00,Wunderground v.1.15,2013-12-04 20:20:00,
2013-12-04 15:30:00,43.4,36.7,30.00,NE,50,1.0,1.0,77,0.00,,,0.00,Wunderground v.1.15,2013-12-04 20:30:00,
2013-12-04 15:40:00,43.4,36.7,30.00,NE,35,1.0,3.0,77,0.00,,,0.00,Wunderground v.1.15,2013-12-04 20:40:00,
2013-12-04 15:50:00,43.6,37.2,30.01,East,82,2.0,2.0,78,0.00,,,0.00,Wunderground v.1.15,2013-12-04 20:50:00,
2013-12-04 16:00:00,43.8,37.7,30.01,ENE,71,0.0,2.0,79,0.00,,,0.00,Wunderground v.1.15,2013-12-04 21:00:00,
2013-12-04 16:10:00,43.8,37.7,30.01,East,98,1.0,1.0,79,0.00,,,0.00,Wunderground v.1.15,2013-12-04 21:10:00,
2013-12-04 16:20:00,44.0,38.2,30.01,ESE,106,1.0,1.0,80,0.00,,,0.00,Wunderground v.1.15,2013-12-04 21:20:00,
2013-12-04 16:30:00,44.0,37.9,30.01,ENE,59,1.0,4.0,79,0.00,,,0.00,Wunderground v.1.15,2013-12-04 21:30:00,
2013-12-04 16:40:00,44.1,37.7,30.01,ESE,116,2.0,2.0,78,0.00,,,0.00,Wunderground v.1.15,2013-12-04 21:40:00,
2013-12-04 16:50:00,44.1,37.7,30.01,ESE,122,1.0,1.0,78,0.00,,,0.00,Wunderground v.1.15,2013-12-04 21:50:00,
2013-12-04 17:00:00,44.1,38.0,30.01,SE,139,1.0,1.0,79,0.00,,,0.00,Wunderground v.1.15,2013-12-04 22:00:00,
2013-12-04 17:10:00,44.0,37.9,30.01,SE,138,1.0,1.0,79,0.00,,,0.00,Wunderground v.1.15,2013-12-04 22:10:00,
2013-12-04 17:20:00,43.6,37.8,30.02,SSE,162,1.0,3.0,80,0.00,,,0.00,Wunderground v.1.15,2013-12-04 22:20:00,
2013-12-04 17:30:00,43.2,37.8,30.02,SSE,147,1.0,3.0,81,0.00,,,0.00,Wunderground v.1.15,2013-12-04 22:30:00,
2013-12-04 17:40:00,42.8,37.7,30.02,SE,144,3.0,3.0,82,0.00,,,0.00,Wunderground v.1.15,2013-12-04 22:40:00,
2013-12-04 17:50:00,42.5,37.7,30.02,South,174,3.0,4.0,83,0.00,,,0.00,Wunderground v.1.15,2013-12-04 22:50:00,
2013-12-04 18:00:00,42.4,37.9,30.03,SE,133,3.0,3.0,84,0.00,,,0.00,Wunderground v.1.15,2013-12-04 23:00:00,
2013-12-04 18:10:00,42.2,38.0,30.03,SE,139,3.0,3.0,85,0.00,,,0.00,Wunderground v.1.15,2013-12-04 23:10:00,
2013-12-04 18:20:00,42.2,38.3,30.04,SSE,152,2.0,3.0,86,0.00,,,0.00,Wunderground v.1.15,2013-12-04 23:20:00,
2013-12-04 18:30:00,42.0,37.8,30.04,SE,145,2.0,2.0,85,0.00,,,0.00,Wunderground v.1.15,2013-12-04 23:30:00,
2013-12-04 18:40:00,41.7,37.5,30.04,SE,137,0.0,0.0,85,0.00,,,0.00,Wunderground v.1.15,2013-12-04 23:40:00,
2013-12-04 18:50:00,41.6,37.1,30.04,SE,133,1.0,1.0,84,0.00,,,0.00,Wunderground v.1.15,2013-12-04 23:50:00,
2013-12-04 19:00:00,41.4,36.9,30.04,SE,132,2.0,2.0,84,0.00,,,0.00,Wunderground v.1.15,2013-12-05 00:00:00,
2013-12-04 19:10:00,41.4,37.2,30.04,SE,133,1.0,1.0,85,0.00,,,0.00,Wunderground v.1.15,2013-12-05 00:10:00,
2013-12-04 19:20:00,41.7,37.8,30.04,SE,139,1.0,1.0,86,0.00,,,0.00,Wunderground v.1.15,2013-12-05 00:20:00,
2013-12-04 19:30:00,41.9,38.0,30.05,SE,139,1.0,1.0,86,0.00,,,0.00,Wunderground v.1.15,2013-12-05 00:30:00,
2013-12-04 19:40:00,42.1,37.9,30.05,SE,135,2.0,2.0,85,0.00,,,0.00,Wunderground v.1.15,2013-12-05 00:40:00,
2013-12-04 19:50:00,42.1,37.9,30.04,SSE,152,2.0,3.0,85,0.00,,,0.00,Wunderground v.1.15,2013-12-05 00:50:00,
2013-12-04 20:00:00,42.1,37.9,30.05,SSE,150,3.0,3.0,85,0.00,,,0.00,Wunderground v.1.15,2013-12-05 01:00:00,
2013-12-04 20:10:00,42.1,37.6,30.05,SE,142,3.0,3.0,84,0.00,,,0.00,Wunderground v.1.15,2013-12-05 01:10:00,
2013-12-04 20:20:00,42.0,37.2,30.04,SSE,152,3.0,3.0,83,0.00,,,0.00,Wunderground v.1.15,2013-12-05 01:20:00,
2013-12-04 20:30:00,41.9,37.1,30.04,ESE,118,3.0,4.0,83,0.00,,,0.00,Wunderground v.1.15,2013-12-05 01:30:00,
2013-12-04 20:40:00,41.7,36.9,30.04,SE,135,3.0,3.0,83,0.00,,,0.00,Wunderground v.1.15,2013-12-05 01:40:00,
2013-12-04 20:50:00,41.4,36.9,30.04,SE,138,3.0,3.0,84,0.00,,,0.00,Wunderground v.1.15,2013-12-05 01:50:00,
2013-12-04 21:00:00,41.6,37.7,30.04,SE,124,4.0,4.0,86,0.00,,,0.00,Wunderground v.1.15,2013-12-05 02:00:00,
2013-12-04 21:10:00,42.2,38.6,30.04,SE,126,4.0,4.0,87,0.00,,,0.00,Wunderground v.1.15,2013-12-05 02:10:00,
2013-12-04 21:20:00,42.4,39.1,30.03,ESE,120,4.0,5.0,88,0.00,,,0.00,Wunderground v.1.15,2013-12-05 02:20:00,
2013-12-04 21:30:00,42.7,39.7,30.03,ESE,115,4.0,4.0,89,0.00,,,0.00,Wunderground v.1.15,2013-12-05 02:30:00,
2013-12-04 21:40:00,42.8,39.8,30.03,SE,124,4.0,4.0,89,0.00,,,0.00,Wunderground v.1.15,2013-12-05 02:40:00,
2013-12-04 21:50:00,43.0,40.3,30.04,SSE,149,4.0,5.0,90,0.00,,,0.00,Wunderground v.1.15,2013-12-05 02:50:00,
2013-12-04 22:00:00,43.2,40.5,30.04,SE,145,5.0,5.0,90,0.00,,,0.00,Wunderground v.1.15,2013-12-05 03:00:00,
2013-12-04 22:10:00,43.5,40.8,30.04,ESE,122,4.0,5.0,90,0.00,,,0.00,Wunderground v.1.15,2013-12-05 03:10:00,
2013-12-04 22:20:00,43.9,41.4,30.04,SSE,155,4.0,4.0,91,0.00,,,0.00,Wunderground v.1.15,2013-12-05 03:20:00,
2013-12-04 22:30:00,44.3,41.8,30.04,SE,137,4.0,4.0,91,0.00,,,0.00,Wunderground v.1.15,2013-12-05 03:30:00,
2013-12-04 22:40:00,44.5,42.0,30.04,ESE,110,3.0,3.0,91,0.00,,,0.00,Wunderground v.1.15,2013-12-05 03:40:00,
2013-12-04 22:50:00,44.5,42.0,30.04,South,185,4.0,4.0,91,0.00,,,0.00,Wunderground v.1.15,2013-12-05 03:50:00,
2013-12-04 23:00:00,44.5,42.0,30.04,SE,133,4.0,4.0,91,0.00,,,0.00,Wunderground v.1.15,2013-12-05 04:00:00,
2013-12-04 23:10:00,44.4,41.9,30.04,East,95,4.0,4.0,91,0.00,,,0.00,Wunderground v.1.15,2013-12-05 04:10:00,
2013-12-04 23:20:00,44.3,41.8,30.04,ESE,118,4.0,4.0,91,0.00,,,0.00,Wunderground v.1.15,2013-12-05 04:20:00,
2013-12-04 23:30:00,44.3,41.8,30.03,SSE,152,3.0,5.0,91,0.00,,,0.00,Wunderground v.1.15,2013-12-05 04:30:00,
2013-12-04 23:40:00,44.5,42.3,30.03,SSE,147,3.0,3.0,92,0.00,,,0.00,Wunderground v.1.15,2013-12-05 04:40:00,
2013-12-04 23:50:00,44.5,42.3,30.04,East,100,2.0,2.0,92,0.00,,,0.00,Wunderground v.1.15,2013-12-05 04:50:00,